When you browse on this site, cookies collect data to enhance your experience and personalize the content and advertising you see.
Visit our Privacy Policy to learn more. By continuing to use the site, you agree to this use of cookies and data.
  • In Slovakia
  • List of Countries
  • For 7 days
  • Water Temperature
  • Satellite Maps
  • Weather Map
  • Weather Widgets
  • user-avatar
    Login

    Hourly Weather Salta

    Today, 20 July, Saturday

    Time Temperature Precipitation Wind Pressure Humidity
    00:00 +12°C° 0 mm 1 mps 651 mmHg 75%
    01:00 +12°C° 0 mm 1 mps 650 mmHg 73%
    02:00 +12°C° 0 mm 1 mps 650 mmHg 71%
    03:00 +12°C° 0 mm 1 mps 650 mmHg 69%
    04:00 +12°C° 0 mm 1 mps 650 mmHg 67%
    05:00 +11°C° 0 mm 1 mps 649 mmHg 66%
    06:00 +12°C° 0 mm 1 mps 649 mmHg 62%
    07:00 +13°C° 0 mm 1 mps 650 mmHg 59%
    08:00 +13°C° 0 mm 1 mps 650 mmHg 55%
    09:00 +16°C° 0 mm 1 mps 651 mmHg 48%
    10:00 +20°C° 0 mm 1 mps 651 mmHg 41%
    11:00 +23°C° 0 mm 1 mps 652 mmHg 34%
    12:00 +24°C° 0 mm 2 mps 651 mmHg 31%
    13:00 +26°C° 0 mm 2 mps 651 mmHg 28%
    14:00 +27°C° 0 mm 2 mps 650 mmHg 25%
    15:00 +26°C° 0 mm 2 mps 650 mmHg 29%
    16:00 +25°C° 0 mm 2 mps 649 mmHg 33%
    17:00 +24°C° 0 mm 2 mps 649 mmHg 37%
    18:00 +21°C° 0 mm 2 mps 649 mmHg 44%
    19:00 +19°C° 0 mm 1 mps 648 mmHg 51%
    20:00 +16°C° 0 mm 1 mps 648 mmHg 58%
    21:00 +16°C° 0 mm 1 mps 648 mmHg 55%
    22:00 +16°C° 0 mm 2 mps 648 mmHg 51%
    23:00 +16°C° 0 mm 2 mps 647 mmHg 47%

    Tomorrow, 21 July, Sunday

    Time Temperature Precipitation Wind Pressure Humidity
    00:00 +15°C° 0 mm 2 mps 647 mmHg 44%
    01:00 +15°C° 0 mm 2 mps 646 mmHg 42%
    02:00 +15°C° 0 mm 2 mps 646 mmHg 39%
    03:00 +15°C° 0 mm 2 mps 645 mmHg 37%
    04:00 +14°C° 0 mm 2 mps 645 mmHg 36%
    05:00 +14°C° 0 mm 2 mps 645 mmHg 34%
    06:00 +15°C° 0 mm 2 mps 645 mmHg 31%
    07:00 +16°C° 0 mm 3 mps 646 mmHg 27%
    08:00 +16°C° 0 mm 3 mps 646 mmHg 24%
    09:00 +20°C° 0 mm 2 mps 647 mmHg 19%
    10:00 +25°C° 0 mm 2 mps 648 mmHg 15%
    11:00 +29°C° 0 mm 1 mps 649 mmHg 11%
    12:00 +30°C° 0 mm 1 mps 648 mmHg 9%
    13:00 +31°C° 0 mm 1 mps 648 mmHg 8%
    14:00 +32°C° 0 mm 2 mps 647 mmHg 7%
    15:00 +31°C° 0 mm 1 mps 647 mmHg 10%
    16:00 +29°C° 0 mm 1 mps 647 mmHg 12%
    17:00 +26°C° 0 mm 0 mps 646 mmHg 15%
    18:00 +26°C° 0 mm 1 mps 646 mmHg 15%
    19:00 +23°C° 0 mm 2 mps 646 mmHg 15%
    20:00 +20°C° 0 mm 2 mps 646 mmHg 15%
    21:00 +19°C° 0 mm 2 mps 647 mmHg 16%
    22:00 +19°C° 0 mm 2 mps 647 mmHg 18%
    23:00 +18°C° 0 mm 2 mps 647 mmHg 19%

    Day after tomorrow, 22 July, Monday

    Time Temperature Precipitation Wind Pressure Humidity
    00:00 +18°C° 0 mm 2 mps 647 mmHg 21%
    01:00 +17°C° 0 mm 2 mps 648 mmHg 22%
    02:00 +17°C° 0 mm 2 mps 648 mmHg 24%
    03:00 +16°C° 0 mm 2 mps 648 mmHg 25%
    04:00 +15°C° 0 mm 2 mps 648 mmHg 25%
    05:00 +14°C° 0 mm 2 mps 648 mmHg 26%
    06:00 +14°C° 0 mm 2 mps 648 mmHg 35%
    07:00 +14°C° 0 mm 2 mps 649 mmHg 44%
    08:00 +13°C° 0 mm 2 mps 650 mmHg 53%
    09:00 +15°C° 0 mm 2 mps 650 mmHg 52%
    10:00 +16°C° 0 mm 2 mps 650 mmHg 51%
    11:00 +18°C° 0 mm 3 mps 651 mmHg 49%
    12:00 +17°C° 0 mm 3 mps 650 mmHg 49%
    13:00 +17°C° 0 mm 3 mps 649 mmHg 49%
    14:00 +17°C° 0 mm 4 mps 649 mmHg 48%
    15:00 +15°C° 0 mm 4 mps 648 mmHg 49%
    16:00 +14°C° 0 mm 3 mps 648 mmHg 50%
    17:00 +12°C° 0 mm 3 mps 648 mmHg 51%
    18:00 +11°C° 0 mm 3 mps 648 mmHg 53%
    19:00 +9°C° 0 mm 2 mps 648 mmHg 55%
    20:00 +9°C° 0 mm 1 mps 649 mmHg 58%
    21:00 +8°C° 0 mm 1 mps 649 mmHg 56%
    22:00 +8°C° 0 mm 1 mps 649 mmHg 54%
    23:00 +8°C° 0 mm 1 mps 650 mmHg 53%

    23 July, Tuesday

    Time Temperature Precipitation Wind Pressure Humidity
    00:00 +8°C° 0 mm 1 mps 649 mmHg 54%
    01:00 +7°C° 0 mm 1 mps 649 mmHg 55%
    02:00 +7°C° 0 mm 1 mps 649 mmHg 56%
    03:00 +5°C° 0 mm 0 mps 649 mmHg 59%
    04:00 +5°C° 0 mm 0 mps 649 mmHg 61%
    05:00 +4°C° 0 mm 0 mps 648 mmHg 63%
    06:00 +5°C° 0 mm 0 mps 649 mmHg 61%
    07:00 +5°C° 0 mm 0 mps 650 mmHg 59%
    08:00 +6°C° 0 mm 0 mps 651 mmHg 57%
    09:00 +8°C° 0 mm 1 mps 651 mmHg 50%
    10:00 +9°C° 0 mm 2 mps 652 mmHg 43%
    11:00 +12°C° 0 mm 2 mps 652 mmHg 35%
    12:00 +12°C° 0 mm 3 mps 652 mmHg 34%
    13:00 +12°C° 0 mm 3 mps 651 mmHg 32%
    14:00 +13°C° 0 mm 3 mps 650 mmHg 30%
    15:00 +12°C° 0 mm 3 mps 650 mmHg 33%
    16:00 +10°C° 0 mm 3 mps 650 mmHg 35%
    17:00 +9°C° 0 mm 3 mps 650 mmHg 37%
    18:00 +8°C° 0 mm 3 mps 650 mmHg 43%
    19:00 +6°C° 0 mm 2 mps 651 mmHg 48%
    20:00 +5°C° 0 mm 1 mps 651 mmHg 54%
    21:00 +4°C° 0 mm 1 mps 651 mmHg 55%
    22:00 +4°C° 0 mm 1 mps 652 mmHg 57%
    23:00 +3°C° 0 mm 1 mps 652 mmHg 58%

    24 July, Wednesday

    Time Temperature Precipitation Wind Pressure Humidity
    00:00 +3°C° 0 mm 1 mps 652 mmHg 59%
    01:00 +3°C° 0 mm 1 mps 653 mmHg 60%
    02:00 +3°C° 0 mm 1 mps 653 mmHg 61%
    03:00 +3°C° 0 mm 1 mps 653 mmHg 62%
    04:00 +2°C° 0 mm 1 mps 653 mmHg 63%
    05:00 +2°C° 0 mm 1 mps 653 mmHg 64%
    06:00 +3°C° 0 mm 1 mps 653 mmHg 61%
    07:00 +4°C° 0 mm 1 mps 654 mmHg 57%
    08:00 +4°C° 0 mm 1 mps 655 mmHg 54%
    09:00 +7°C° 0 mm 1 mps 655 mmHg 46%
    10:00 +8°C° 0 mm 2 mps 656 mmHg 39%
    11:00 +10°C° 0 mm 2 mps 656 mmHg 31%
    12:00 +12°C° 0 mm 2 mps 656 mmHg 30%
    13:00 +11°C° 0 mm 3 mps 655 mmHg 28%
    14:00 +12°C° 0 mm 3 mps 655 mmHg 27%
    15:00 +11°C° 0 mm 3 mps 654 mmHg 28%
    16:00 +10°C° 0 mm 3 mps 654 mmHg 29%
    17:00 +9°C° 0 mm 3 mps 654 mmHg 31%
    18:00 +8°C° 0 mm 3 mps 655 mmHg 35%
    19:00 +6°C° 0 mm 2 mps 655 mmHg 39%
    20:00 +5°C° 0 mm 1 mps 655 mmHg 43%
    21:00 +5°C° 0 mm 1 mps 655 mmHg 45%
    22:00 +4°C° 0 mm 1 mps 655 mmHg 46%
    23:00 +4°C° 0 mm 1 mps 655 mmHg 47%

    25 July, Thursday

    Time Temperature Precipitation Wind Pressure Humidity
    00:00 +3°C° 0 mm 1 mps 655 mmHg 49%
    01:00 +3°C° 0 mm 1 mps 654 mmHg 50%
    02:00 +3°C° 0 mm 1 mps 654 mmHg 51%
    03:00 +2°C° 0 mm 1 mps 654 mmHg 52%
    04:00 +2°C° 0 mm 1 mps 653 mmHg 52%
    05:00 +2°C° 0 mm 1 mps 653 mmHg 53%
    06:00 +3°C° 0 mm 1 mps 654 mmHg 50%
    07:00 +3°C° 0 mm 0 mps 654 mmHg 47%
    08:00 +4°C° 0 mm 0 mps 655 mmHg 44%
    09:00 +7°C° 0 mm 1 mps 656 mmHg 38%
    10:00 +10°C° 0 mm 1 mps 656 mmHg 32%
    11:00 +13°C° 0 mm 1 mps 657 mmHg 27%
    12:00 +13°C° 0 mm 1 mps 656 mmHg 26%
    13:00 +14°C° 0 mm 2 mps 656 mmHg 25%
    14:00 +15°C° 0 mm 2 mps 655 mmHg 24%
    15:00 +14°C° 0 mm 2 mps 655 mmHg 25%
    16:00 +14°C° 0 mm 2 mps 655 mmHg 26%
    17:00 +13°C° 0 mm 2 mps 654 mmHg 28%
    18:00 +11°C° 0 mm 1 mps 654 mmHg 32%
    19:00 +9°C° 0 mm 1 mps 654 mmHg 36%
    20:00 +7°C° 0 mm 1 mps 653 mmHg 40%
    21:00 +5°C° 0 mm 0 mps 653 mmHg 41%
    22:00 +5°C° 0 mm 0 mps 653 mmHg 41%
    23:00 +4°C° 0 mm 0 mps 653 mmHg 42%
    Show more